Location: Unspecified
(43.4680°N, 87.1740°E)
Time: 19:56:49
(UTC+00:00)

USA 229 - Pass Details

Date: 17 April 2021
Orbit: 958 x 1254 km, 63.4° (Epoch: 23 April)

Event Time Altitude Azimuth Distance (km) Brightness Sun altitude
Rises 16:57:05 0° 324° (NW) 3,945 7.7 -33.3°
Reaches altitude 10° 16:59:49 10° 330° (NNW) 3,027 6.9 -33.4°
Maximum altitude 17:06:53 50° 45° (NE) 1,481 4.4 -33.9°
Enters shadow 17:07:35 49° 62° (ENE) 1,509 4.4 -33.9°
